Hamilton, OH

7:54 PM EDT on September 24, 2016 (GMT -0400)
Butler County Regional

Weather History for KHAO - April, 2014

Change the Weather History Date:

Tuesday, April 22, 2014

  Actual Average (KCVG) Record (KCVG)
Temperature  
Mean Temperature 58 °F 56 °F  
Max Temperature 69 °F 67 °F 86 °F (1985)
Min Temperature 46 °F 46 °F 28 °F (1986)
Degree Days  
Heating Degree Days 7 9  
Month to date heating degree days 277  
Since 1 July heating degree days 4770  
Cooling Degree Days 0 1  
Month to date cooling degree days 10  
Year to date cooling degree days 10  
Growing Degree Days 8 (Base 50)    
Moisture  
Dew Point 47 °F    
Average Humidity 62    
Maximum Humidity 87    
Minimum Humidity 31    
Precipitation  
Precipitation 0.00 in 0.13 in 1.76 in (1887)
Month to date precipitation 2.80  
Year to date precipitation 12.57  
Snow  
Snow 0.00 in 0.00 in 0.10 in (1893)
Month to date snowfall 0.5  
Since 1 July snowfall 22.1  
Snow Depth -    
Sea Level Pressure  
Sea Level Pressure 29.85 in    
Wind  
Wind Speed 8 mph (WNW)    
Max Wind Speed 20 mph    
Max Gust Speed 28 mph    
Visibility 9 miles    
Events      
T = Trace of Precipitation, MM = Missing Value Source: NWS Daily Summary

Daily Weather History Graph

Daily Weather History Graph

Search for Another Location

Airport or City:

Trip Planner

Search our weather history database for the weather conditions in past years. The results will help you decide how hot, cold, wet, or windy it might be!

Date:

Astronomy

Apr. 22, 2014 Rise Set
Actual Time 6:51 AM EDT 8:22 PM EDT
Civil Twilight 6:22 AM EDT 8:51 PM EDT
Nautical Twilight 5:48 AM EDT 9:25 PM EDT
Astronomical Twilight 5:12 AM EDT 10:01 PM EDT
Moon 2:37 AM EDT (4/22) 1:25 PM EDT (4/22)
Length of Visible Light 14h 28m
Length of Day
13h 31m
Last Quarter, 46% of the Moon is Illuminated
Apr 22
Last Quarter
Apr 29
New
May 6
First Quarter
May 14
Full
May 21
Last Quarter

Hourly Weather History & Observations

Time (EDT) Temp. Windchill Dew Point Humidity Pressure Visibility Wind Dir Wind Speed Gust Speed Precip Events Conditions
12:53 AM 64.9 °F - 54.0 °F 68% 29.86 in 10.0 mi WSW 6.9 mph - N/A   Overcast
1:53 AM 61.0 °F - 57.0 °F 87% 29.83 in 10.0 mi Calm Calm - 0.00 in   Overcast
2:53 AM 61.0 °F - 57.0 °F 87% 29.82 in 10.0 mi WSW 3.5 mph - N/A   Overcast
3:53 AM 61.0 °F - 55.0 °F 81% 29.80 in 10.0 mi Calm Calm - N/A   Clear
4:53 AM 60.1 °F - 55.0 °F 83% 29.79 in 10.0 mi West 3.5 mph - 0.00 in   Mostly Cloudy
5:53 AM 60.1 °F - 55.0 °F 83% 29.78 in 10.0 mi West 3.5 mph - N/A   Mostly Cloudy
6:53 AM 61.0 °F - 55.0 °F 81% 29.78 in 10.0 mi West 3.5 mph - N/A   Overcast
7:34 AM 61.0 °F - 55.9 °F 83% 29.81 in 9.0 mi West 4.6 mph - N/A   Overcast
7:53 AM 62.1 °F - 55.9 °F 80% 29.80 in 9.0 mi West 5.8 mph - N/A   Overcast
8:23 AM 63.0 °F - 57.0 °F 81% 29.81 in 7.0 mi WNW 5.8 mph - N/A   Mostly Cloudy
8:41 AM 64.0 °F - 57.0 °F 78% 29.81 in 6.0 mi WNW 8.1 mph - N/A   Haze
8:53 AM 63.0 °F - 57.0 °F 81% 29.81 in 6.0 mi WNW 9.2 mph - N/A   Haze
9:53 AM 64.0 °F - 55.9 °F 75% 29.81 in 7.0 mi NW 12.7 mph - N/A   Overcast
10:53 AM 66.0 °F - 55.9 °F 70% 29.82 in 8.0 mi NW 13.8 mph 18.4 mph N/A   Overcast
11:46 AM 68.0 °F - 53.1 °F 59% 29.83 in 10.0 mi WNW 15.0 mph 21.9 mph N/A   Mostly Cloudy
11:53 AM 68.0 °F - 51.1 °F 55% 29.83 in 10.0 mi WNW 15.0 mph 21.9 mph N/A   Scattered Clouds
12:53 PM 66.9 °F - 48.9 °F 52% 29.83 in 10.0 mi NNW 12.7 mph - N/A   Clear
1:53 PM 66.9 °F - 43.0 °F 42% 29.84 in 10.0 mi WNW 18.4 mph 25.3 mph N/A   Clear
2:53 PM 68.0 °F - 39.0 °F 35% 29.83 in 10.0 mi WNW 17.3 mph 25.3 mph N/A   Clear
3:53 PM 66.9 °F - 35.1 °F 31% 29.83 in 10.0 mi WNW 17.3 mph 25.3 mph N/A   Clear
4:53 PM 66.0 °F - 37.9 °F 36% 29.83 in 10.0 mi NW 13.8 mph 27.6 mph N/A   Clear
5:53 PM 64.0 °F - 34.0 °F 33% 29.85 in 10.0 mi WNW 13.8 mph 27.6 mph N/A   Clear
6:53 PM 61.0 °F - 34.0 °F 36% 29.87 in 10.0 mi NNW 19.6 mph - N/A   Clear
7:53 PM 57.0 °F - 34.0 °F 42% 29.90 in 10.0 mi NW 13.8 mph 21.9 mph N/A   Clear
8:53 PM 54.0 °F - 33.1 °F 45% 29.94 in 10.0 mi NNW 13.8 mph 24.2 mph N/A   Clear
9:53 PM 51.1 °F - 32.0 °F 48% 29.98 in 10.0 mi NW 11.5 mph 21.9 mph N/A   Clear
10:53 PM 48.0 °F - 32.0 °F 54% 29.99 in 10.0 mi NW 6.9 mph - N/A   Clear
11:53 PM 46.0 °F 42.5 °F 30.9 °F 56% 29.99 in 10.0 mi NW 6.9 mph - N/A   Clear